TimeAEST,TemperatureF,Dew PointF,Humidity,Sea Level PressureIn,VisibilityMPH,Wind Direction,Wind SpeedMPH,Gust SpeedMPH,PrecipitationIn,Events,Conditions,WindDirDegrees,DateUTC
12:00 AM,78,74,83,29.77,,SSE,8.1,,,,,150,2013-01-18 14:00:00
12:00 AM,78.8,73.4,83,29.77,6.2,SSE,8.1,-,N/A,,Scattered Clouds,150,2013-01-18 14:00:00
12:30 AM,77.0,73.4,89,29.74,6.2,SSE,11.5,-,N/A,Rain,Light Rain Showers,150,2013-01-18 14:30:00
1:00 AM,77,75,91,29.75,,SW,3.5,,,,,220,2013-01-18 15:00:00
1:00 AM,77.0,75.2,94,29.74,6.2,SW,3.5,-,N/A,Rain,Light Rain Showers,220,2013-01-18 15:00:00
1:30 AM,77.0,73.4,89,29.71,6.2,SE,8.1,-,N/A,Rain,Light Rain Showers,140,2013-01-18 15:30:00
1:54 AM,77.0,75.2,94,29.71,5.0,SSE,5.8,-,N/A,Rain,Light Rain Showers,150,2013-01-18 15:54:00
2:00 AM,77.0,73.4,89,29.71,5.0,SE,10.4,-,N/A,Rain,Light Rain Showers,140,2013-01-18 16:00:00
2:30 AM,77.0,73.4,89,29.71,3.7,South,8.1,-,N/A,Rain,Light Rain Showers,170,2013-01-18 16:30:00
2:38 AM,77.0,75.2,94,29.68,2.5,West,4.6,-,N/A,Rain,Rain Showers,260,2013-01-18 16:38:00
3:00 AM,76,75,95,29.71,3,West,3.5,,,,Overcast,270,2013-01-18 17:00:00
3:00 AM,75.2,75.2,100,29.71,1.9,West,3.5,-,N/A,Rain,Rain Showers,270,2013-01-18 17:00:00
3:30 AM,75.2,73.4,94,29.68,1.2,SE,11.5,-,N/A,Rain,Heavy Rain Showers,130,2013-01-18 17:30:00
4:05 AM,75.2,73.4,94,29.68,1.2,South,4.6,-,N/A,Rain,Heavy Rain Showers,170,2013-01-18 18:05:00
4:30 AM,75.2,75.2,100,29.68,1.9,South,6.9,-,N/A,Rain,Rain Showers,170,2013-01-18 18:30:00
5:00 AM,75.2,75.2,100,29.68,3.1,WNW,5.8,-,N/A,Rain,Rain,290,2013-01-18 19:00:00
5:30 AM,75.2,75.2,100,29.68,5.6,SSW,2.3,-,N/A,Rain,Light Rain Showers,210,2013-01-18 19:30:00
5:39 AM,75.2,75.2,100,29.68,3.7,South,3.5,-,N/A,Rain,Light Rain,180,2013-01-18 19:39:00
6:00 AM,75,74,98,29.71,4,SSE,6.9,,,Rain,Light Rain,150,2013-01-18 20:00:00
6:00 AM,75.2,75.2,100,29.71,3.7,SSE,6.9,-,N/A,Rain,Light Rain,150,2013-01-18 20:00:00
6:30 AM,75.2,75.2,100,29.71,4.3,WNW,5.8,-,N/A,Rain,Light Rain,290,2013-01-18 20:30:00
7:00 AM,76,75,95,29.74,,Calm,Calm,,,,,,2013-01-18 21:00:00
7:00 AM,75.2,75.2,100,29.74,3.7,Calm,Calm,-,N/A,Rain,Light Rain,0,2013-01-18 21:00:00
7:30 AM,75.2,75.2,100,29.74,3.7,West,4.6,-,N/A,,Overcast,280,2013-01-18 21:30:00
8:00 AM,75.2,73.4,94,29.74,3.7,South,13.8,-,N/A,Rain,Light Rain,190,2013-01-18 22:00:00
8:30 AM,75.2,71.6,89,29.74,3.7,South,9.2,-,N/A,Rain,Light Rain,190,2013-01-18 22:30:00
9:00 AM,76,73,88,29.75,4,South,3.5,,,Rain,Light Rain,180,2013-01-18 23:00:00
9:00 AM,77.0,73.4,89,29.74,4.3,South,3.5,-,N/A,,Overcast,180,2013-01-18 23:00:00
9:30 AM,77.0,75.2,94,29.74,3.1,South,6.9,-,N/A,Rain,Light Rain,170,2013-01-18 23:30:00
10:00 AM,77,75,92,29.75,,SSE,10.4,,,,,160,2013-01-19 00:00:00
10:00 AM,77.0,75.2,94,29.74,3.7,SSE,10.4,-,N/A,,Overcast,160,2013-01-19 00:00:00
10:30 AM,77.0,75.2,94,29.74,1.9,SE,8.1,-,N/A,Rain,Rain,140,2013-01-19 00:30:00
11:00 AM,77.0,75.2,94,29.71,3.7,SE,6.9,-,N/A,Rain,Light Rain,130,2013-01-19 01:00:00
11:30 AM,77.0,75.2,94,29.71,3.1,NE,6.9,-,N/A,Rain,Light Rain,50,2013-01-19 01:30:00
12:00 PM,77,74,86,29.71,4,East,8.1,,,Rain,Light Rain,80,2013-01-19 02:00:00
12:00 PM,77.0,73.4,89,29.71,3.7,East,8.1,-,N/A,Rain,Light Rain,80,2013-01-19 02:00:00
12:30 PM,78.8,75.2,89,29.68,5.6,ESE,8.1,-,N/A,,Mostly Cloudy,110,2013-01-19 02:30:00
12:42 PM,78.8,75.2,89,29.68,3.1,East,15.0,-,N/A,Rain,Light Rain,90,2013-01-19 02:42:00
1:00 PM,80,75,80,29.69,,East,10.4,,,,,90,2013-01-19 03:00:00
1:00 PM,80.6,75.2,84,29.68,5.6,East,10.4,-,N/A,,Mostly Cloudy,90,2013-01-19 03:00:00
1:30 PM,80.6,73.4,79,29.65,5.0,ESE,10.4,-,N/A,,Overcast,120,2013-01-19 03:30:00
1:47 PM,80.6,73.4,79,29.65,3.1,SE,9.2,-,N/A,Rain,Light Rain,140,2013-01-19 03:47:00
2:00 PM,78.8,75.2,89,29.65,3.1,SE,9.2,-,N/A,Rain,Light Rain,140,2013-01-19 04:00:00
2:30 PM,80.6,73.4,79,29.62,3.7,ESE,6.9,-,N/A,Rain,Light Rain,120,2013-01-19 04:30:00
2:55 PM,78.8,73.4,83,29.62,2.5,ESE,5.8,-,N/A,Rain,Light Rain,120,2013-01-19 04:55:00
3:00 PM,79,75,83,29.64,2,ESE,4.6,,,Rain,Light Rain,120,2013-01-19 05:00:00
3:00 PM,78.8,75.2,89,29.62,2.5,ESE,4.6,-,N/A,Rain,Light Rain,120,2013-01-19 05:00:00
3:30 PM,77.0,75.2,94,29.62,1.2,ESE,5.8,-,N/A,Rain,Rain,110,2013-01-19 05:30:00
4:00 PM,76,75,95,29.64,,SSE,9.2,,,,,160,2013-01-19 06:00:00
4:00 PM,77.0,75.2,94,29.62,3.7,SSE,9.2,-,N/A,Rain,Light Rain,160,2013-01-19 06:00:00
4:30 PM,77.0,75.2,94,29.62,3.7,South,8.1,-,N/A,Rain,Light Rain,170,2013-01-19 06:30:00
5:00 PM,77.0,75.2,94,29.62,3.7,South,9.2,-,N/A,Rain,Light Rain,170,2013-01-19 07:00:00
5:30 PM,77.0,75.2,94,29.62,3.7,South,9.2,-,N/A,Rain,Light Rain,170,2013-01-19 07:30:00
6:00 PM,76,75,94,29.65,6,SSE,11.5,,,,Overcast,160,2013-01-19 08:00:00
6:00 PM,77.0,75.2,94,29.65,3.1,SSE,11.5,-,N/A,Rain,Rain,160,2013-01-19 08:00:00
6:30 PM,75.2,73.4,94,29.65,3.7,South,13.8,-,N/A,Rain,Light Rain,170,2013-01-19 08:30:00
7:00 PM,76,74,94,29.67,,South,11.5,,,,,170,2013-01-19 09:00:00
7:00 PM,75.2,75.2,100,29.65,5.0,South,11.5,-,N/A,,Mostly Cloudy,170,2013-01-19 09:00:00
7:30 PM,75.2,75.2,100,29.68,6.2,South,13.8,-,N/A,,Mostly Cloudy,170,2013-01-19 09:30:00
8:00 PM,75.2,73.4,94,29.68,6.2,South,9.2,-,N/A,Rain,Light Rain Showers,170,2013-01-19 10:00:00
8:30 PM,75.2,73.4,94,29.71,5.0,SSW,8.1,-,N/A,Rain,Light Rain Showers,200,2013-01-19 10:30:00
9:00 PM,76,74,90,29.71,,South,8.1,,,,Overcast,190,2013-01-19 11:00:00
9:00 PM,75.2,73.4,94,29.71,5.0,South,8.1,-,N/A,Rain,Light Rain Showers,190,2013-01-19 11:00:00
9:30 PM,75.2,73.4,94,29.71,3.7,South,8.1,-,N/A,Rain,Light Rain,170,2013-01-19 11:30:00
10:00 PM,76,73,87,29.71,,South,8.1,,,,,180,2013-01-19 12:00:00
10:00 PM,75.2,73.4,94,29.71,5.0,South,8.1,-,N/A,Rain,Light Rain,180,2013-01-19 12:00:00
10:18 PM,75.2,73.4,94,29.68,6.2,South,8.1,-,N/A,Rain,Light Rain Showers,180,2013-01-19 12:18:00
10:30 PM,75.2,73.4,94,29.68,6.2,South,9.2,-,N/A,,Overcast,180,2013-01-19 12:30:00
11:00 PM,75.2,73.4,94,29.68,6.2,South,10.4,-,N/A,Rain,Light Rain Showers,190,2013-01-19 13:00:00
11:30 PM,75.2,73.4,94,29.68,6.2,South,9.2,-,N/A,,Mostly Cloudy,190,2013-01-19 13:30:00